Time,TemperatureF,DewpointF,PressureIn,WindDirection,WindDirectionDegrees,WindSpeedMPH,WindSpeedGustMPH,Humidity,HourlyPrecipIn,Conditions,Clouds,dailyrainin,SolarRadiationWatts/m^2,SoftwareType,DateUTC
2013-04-13 00:03:00,38.0,37.0,-100.00,SSW,208,3.0,9.0,96,0.00,,,0.21,1.000000,,2013-04-13 07:03:00,
2013-04-13 00:10:00,36.0,33.0,-100.00,NW,312,2.0,16.0,89,0.01,,,0.22,1.000000,,2013-04-13 07:10:00,
2013-04-13 00:35:00,36.0,33.0,-100.00,NW,312,2.0,16.0,89,0.01,,,0.22,1.000000,,2013-04-13 07:35:00,
2013-04-13 00:45:00,36.0,33.0,-100.00,NW,312,2.0,16.0,89,0.01,,,0.22,1.000000,,2013-04-13 07:45:00,
2013-04-13 00:55:00,36.0,33.0,-100.00,NW,312,2.0,16.0,89,0.01,,,0.22,1.000000,,2013-04-13 07:55:00,
2013-04-13 01:04:00,36.0,33.0,-100.00,NW,312,2.0,16.0,89,0.01,,,0.22,1.000000,,2013-04-13 08:04:00,
2013-04-13 01:10:00,35.0,33.0,-100.00,NE,35,0.0,8.0,94,0.01,,,0.23,1.000000,,2013-04-13 08:10:00,
2013-04-13 01:46:00,35.0,33.0,-100.00,NE,35,0.0,8.0,94,0.01,,,0.23,1.000000,,2013-04-13 08:46:00,
2013-04-13 01:54:00,35.0,33.0,-100.00,NE,35,0.0,8.0,94,0.01,,,0.23,1.000000,,2013-04-13 08:54:00,
2013-04-13 02:04:00,35.0,33.0,-100.00,NE,35,0.0,8.0,94,0.01,,,0.23,1.000000,,2013-04-13 09:04:00,
2013-04-13 02:10:00,33.0,31.0,-100.00,South,179,2.0,6.0,94,0.01,,,0.24,1.000000,,2013-04-13 09:10:00,
2013-04-13 02:52:00,33.0,31.0,-100.00,South,179,2.0,6.0,94,0.01,,,0.24,1.000000,,2013-04-13 09:52:00,
2013-04-13 03:04:00,33.0,31.0,-100.00,South,179,2.0,6.0,94,0.01,,,0.24,1.000000,,2013-04-13 10:04:00,
2013-04-13 03:10:00,33.0,31.0,-100.00,South,183,3.0,7.0,94,0.00,,,0.24,1.000000,,2013-04-13 10:10:00,
2013-04-13 03:38:00,33.0,31.0,-100.00,South,183,3.0,7.0,94,0.00,,,0.24,1.000000,,2013-04-13 10:38:00,
2013-04-13 03:49:00,33.0,31.0,-100.00,South,183,3.0,7.0,94,0.00,,,0.24,1.000000,,2013-04-13 10:49:00,
2013-04-13 03:54:00,33.0,31.0,-100.00,South,183,3.0,7.0,94,0.00,,,0.24,1.000000,,2013-04-13 10:54:00,
2013-04-13 04:04:00,33.0,31.0,-100.00,South,183,3.0,7.0,94,0.00,,,0.24,1.000000,,2013-04-13 11:04:00,
2013-04-13 04:10:00,33.0,31.0,-100.00,SE,135,0.0,4.0,93,0.00,,,0.24,1.000000,,2013-04-13 11:10:00,
2013-04-13 04:35:00,33.0,31.0,-100.00,SE,135,0.0,4.0,93,0.00,,,0.24,1.000000,,2013-04-13 11:35:00,
2013-04-13 04:45:00,33.0,31.0,-100.00,SE,135,0.0,4.0,93,0.00,,,0.24,1.000000,,2013-04-13 11:45:00,
2013-04-13 04:53:00,33.0,31.0,-100.00,SE,135,0.0,4.0,93,0.00,,,0.24,1.000000,,2013-04-13 11:53:00,
2013-04-13 05:05:00,33.0,31.0,-100.00,SE,135,0.0,4.0,93,0.00,,,0.24,1.000000,,2013-04-13 12:05:00,
2013-04-13 05:10:00,32.0,30.0,-100.00,North,353,0.0,4.0,94,0.01,,,0.25,1.000000,,2013-04-13 12:10:00,
2013-04-13 05:37:00,32.0,30.0,-100.00,North,353,0.0,4.0,94,0.01,,,0.25,1.000000,,2013-04-13 12:37:00,
2013-04-13 05:48:00,32.0,30.0,-100.00,North,353,0.0,4.0,94,0.01,,,0.25,1.000000,,2013-04-13 12:48:00,
2013-04-13 05:55:00,32.0,30.0,-100.00,North,353,0.0,4.0,94,0.01,,,0.25,1.000000,,2013-04-13 12:55:00,
2013-04-13 06:04:00,32.0,30.0,-100.00,North,353,0.0,4.0,94,0.01,,,0.25,1.000000,,2013-04-13 13:04:00,
2013-04-13 06:10:00,32.0,31.0,-100.00,NE,41,0.0,4.0,95,0.00,,,0.25,1.000000,,2013-04-13 13:10:00,
2013-04-13 06:35:00,32.0,31.0,-100.00,NE,41,0.0,4.0,95,0.00,,,0.25,1.000000,,2013-04-13 13:35:00,
2013-04-13 06:48:00,32.0,31.0,-100.00,NE,41,0.0,4.0,95,0.00,,,0.25,1.000000,,2013-04-13 13:48:00,
2013-04-13 06:55:00,32.0,31.0,-100.00,NE,41,0.0,4.0,95,0.00,,,0.25,1.000000,,2013-04-13 13:55:00,
2013-04-13 07:03:00,32.0,31.0,-100.00,NE,41,0.0,4.0,95,0.00,,,0.25,1.000000,,2013-04-13 14:03:00,
2013-04-13 07:10:00,32.0,31.0,-100.00,NNE,17,0.0,3.0,95,0.00,,,0.25,3.000000,,2013-04-13 14:10:00,
2013-04-13 07:48:00,32.0,31.0,-100.00,NNE,17,0.0,3.0,95,0.00,,,0.25,3.000000,,2013-04-13 14:48:00,
2013-04-13 07:58:00,32.0,31.0,-100.00,NNE,17,0.0,3.0,95,0.00,,,0.25,3.000000,,2013-04-13 14:58:00,
2013-04-13 08:03:00,32.0,31.0,-100.00,NNE,17,0.0,3.0,95,0.00,,,0.25,3.000000,,2013-04-13 15:03:00,
2013-04-13 08:10:00,33.0,32.0,-100.00,SSE,155,1.0,4.0,95,0.00,,,0.25,10.000000,,2013-04-13 15:10:00,
2013-04-13 08:45:00,33.0,32.0,-100.00,SSE,155,1.0,4.0,95,0.00,,,0.25,10.000000,,2013-04-13 15:45:00,
2013-04-13 08:57:00,33.0,32.0,-100.00,SSE,155,1.0,4.0,95,0.00,,,0.25,10.000000,,2013-04-13 15:57:00,
2013-04-13 09:04:00,33.0,32.0,-100.00,SSE,155,1.0,4.0,95,0.00,,,0.25,10.000000,,2013-04-13 16:04:00,
2013-04-13 09:10:00,33.0,31.0,-100.00,North,9,3.0,4.0,93,0.00,,,0.25,19.000000,,2013-04-13 16:10:00,
2013-04-13 09:36:00,33.0,31.0,-100.00,North,9,3.0,4.0,93,0.00,,,0.25,19.000000,,2013-04-13 16:36:00,
2013-04-13 09:47:00,33.0,31.0,-100.00,North,9,3.0,4.0,93,0.00,,,0.25,19.000000,,2013-04-13 16:47:00,
2013-04-13 09:55:00,33.0,31.0,-100.00,North,9,3.0,4.0,93,0.00,,,0.25,19.000000,,2013-04-13 16:55:00,
2013-04-13 10:04:00,33.0,31.0,-100.00,North,9,3.0,4.0,93,0.00,,,0.25,19.000000,,2013-04-13 17:04:00,
2013-04-13 10:10:00,34.0,32.0,-100.00,East,88,0.0,4.0,93,0.00,,,0.25,26.000000,,2013-04-13 17:10:00,
2013-04-13 10:38:00,34.0,32.0,-100.00,East,88,0.0,4.0,93,0.00,,,0.25,26.000000,,2013-04-13 17:38:00,
2013-04-13 11:02:00,34.0,32.0,-100.00,East,88,0.0,4.0,93,0.00,,,0.25,26.000000,,2013-04-13 18:02:00,
2013-04-13 11:10:00,36.0,34.0,-100.00,North,358,0.0,4.0,91,0.00,,,0.25,79.000000,,2013-04-13 18:10:00,
2013-04-13 11:33:00,36.0,34.0,-100.00,North,358,0.0,4.0,91,0.00,,,0.25,79.000000,,2013-04-13 18:33:00,
2013-04-13 11:42:00,36.0,34.0,-100.00,North,358,0.0,4.0,91,0.00,,,0.25,79.000000,,2013-04-13 18:42:00,
2013-04-13 11:53:00,36.0,34.0,-100.00,North,358,0.0,4.0,91,0.00,,,0.25,79.000000,,2013-04-13 18:53:00,
2013-04-13 12:02:00,36.0,34.0,-100.00,North,358,0.0,4.0,91,0.00,,,0.25,79.000000,,2013-04-13 19:02:00,
2013-04-13 12:10:00,37.0,34.0,-100.00,North,0,2.0,6.0,89,0.01,,,0.26,162.000000,,2013-04-13 19:10:00,
2013-04-13 12:42:00,37.0,34.0,-100.00,North,0,2.0,6.0,89,0.01,,,0.26,162.000000,,2013-04-13 19:42:00,
2013-04-13 12:53:00,37.0,34.0,-100.00,North,0,2.0,6.0,89,0.01,,,0.26,162.000000,,2013-04-13 19:53:00,
2013-04-13 13:02:00,37.0,34.0,-100.00,North,0,2.0,6.0,89,0.01,,,0.26,162.000000,,2013-04-13 20:02:00,
2013-04-13 13:10:00,37.0,34.0,-100.00,West,269,1.0,6.0,87,0.13,,,0.39,130.000000,,2013-04-13 20:10:00,
2013-04-13 13:32:00,37.0,34.0,-100.00,West,269,1.0,6.0,87,0.13,,,0.39,130.000000,,2013-04-13 20:32:00,
2013-04-13 13:42:00,37.0,34.0,-100.00,West,269,1.0,6.0,87,0.13,,,0.39,130.000000,,2013-04-13 20:42:00,
2013-04-13 13:52:00,37.0,34.0,-100.00,West,269,1.0,6.0,87,0.13,,,0.39,130.000000,,2013-04-13 20:52:00,
2013-04-13 14:02:00,37.0,34.0,-100.00,West,269,1.0,6.0,87,0.13,,,0.39,130.000000,,2013-04-13 21:02:00,
2013-04-13 14:10:00,39.0,36.0,-100.00,ENE,76,1.0,5.0,90,0.06,,,0.45,184.000000,,2013-04-13 21:10:00,
2013-04-13 14:33:00,39.0,36.0,-100.00,ENE,76,1.0,5.0,90,0.06,,,0.45,184.000000,,2013-04-13 21:33:00,
2013-04-13 14:43:00,39.0,36.0,-100.00,ENE,76,1.0,5.0,90,0.06,,,0.45,184.000000,,2013-04-13 21:43:00,
2013-04-13 14:53:00,39.0,36.0,-100.00,ENE,76,1.0,5.0,90,0.06,,,0.45,184.000000,,2013-04-13 21:53:00,
2013-04-13 15:02:00,39.0,36.0,-100.00,ENE,76,1.0,5.0,90,0.06,,,0.45,184.000000,,2013-04-13 22:02:00,
2013-04-13 15:10:00,36.0,33.0,-100.00,NW,314,2.0,8.0,90,0.08,,,0.51,107.000000,,2013-04-13 22:10:00,
2013-04-13 15:33:00,36.0,33.0,-100.00,NW,314,2.0,8.0,90,0.08,,,0.51,107.000000,,2013-04-13 22:33:00,
2013-04-13 15:42:00,36.0,33.0,-100.00,NW,314,2.0,8.0,90,0.08,,,0.51,107.000000,,2013-04-13 22:42:00,
2013-04-13 15:52:00,36.0,33.0,-100.00,NW,314,2.0,8.0,90,0.08,,,0.51,107.000000,,2013-04-13 22:52:00,
2013-04-13 16:02:00,36.0,33.0,-100.00,NW,314,2.0,8.0,90,0.08,,,0.51,107.000000,,2013-04-13 23:02:00,
2013-04-13 16:10:00,34.0,32.0,-100.00,SSE,158,1.0,7.0,94,0.09,,,0.56,60.000000,,2013-04-13 23:10:00,
2013-04-13 16:33:00,34.0,32.0,-100.00,SSE,158,1.0,7.0,94,0.09,,,0.56,60.000000,,2013-04-13 23:33:00,
2013-04-13 16:43:00,34.0,32.0,-100.00,SSE,158,1.0,7.0,94,0.09,,,0.56,60.000000,,2013-04-13 23:43:00,
2013-04-13 16:53:00,34.0,32.0,-100.00,SSE,158,1.0,7.0,94,0.09,,,0.56,60.000000,,2013-04-13 23:53:00,
2013-04-13 17:02:00,34.0,32.0,-100.00,SSE,158,1.0,7.0,94,0.09,,,0.56,60.000000,,2013-04-14 00:02:00,
2013-04-13 18:10:00,34.0,33.0,-100.00,SE,141,0.0,3.0,95,-99.99,,,0.63,61.000000,,2013-04-14 01:10:00,
2013-04-13 18:42:00,34.0,33.0,-100.00,SE,141,0.0,3.0,95,-99.99,,,0.63,61.000000,,2013-04-14 01:42:00,
2013-04-13 18:53:00,34.0,33.0,-100.00,SE,141,0.0,3.0,95,-99.99,,,0.63,61.000000,,2013-04-14 01:53:00,
2013-04-13 19:02:00,34.0,33.0,-100.00,SE,141,0.0,3.0,95,-99.99,,,0.63,61.000000,,2013-04-14 02:02:00,
2013-04-13 19:10:00,33.0,32.0,-100.00,SE,130,0.0,9.0,95,0.06,,,0.68,36.000000,,2013-04-14 02:10:00,
2013-04-13 19:33:00,33.0,32.0,-100.00,SE,130,0.0,9.0,95,0.06,,,0.68,36.000000,,2013-04-14 02:33:00,
2013-04-13 19:42:00,33.0,32.0,-100.00,SE,130,0.0,9.0,95,0.06,,,0.68,36.000000,,2013-04-14 02:42:00,
2013-04-13 19:53:00,33.0,32.0,-100.00,SE,130,0.0,9.0,95,0.06,,,0.68,36.000000,,2013-04-14 02:53:00,
2013-04-13 20:02:00,33.0,32.0,-100.00,SE,130,0.0,9.0,95,0.06,,,0.68,36.000000,,2013-04-14 03:02:00,
2013-04-13 20:10:00,34.0,33.0,-100.00,South,173,0.0,3.0,96,0.01,,,0.68,10.000000,,2013-04-14 03:10:00,
2013-04-13 20:43:00,34.0,33.0,-100.00,South,173,0.0,3.0,96,0.01,,,0.68,10.000000,,2013-04-14 03:43:00,
2013-04-13 20:53:00,34.0,33.0,-100.00,South,173,0.0,3.0,96,0.01,,,0.68,10.000000,,2013-04-14 03:53:00,
2013-04-13 21:02:00,34.0,33.0,-100.00,South,173,0.0,3.0,96,0.01,,,0.68,10.000000,,2013-04-14 04:02:00,
2013-04-13 21:10:00,34.0,33.0,-100.00,SE,133,1.0,3.0,96,0.01,,,0.68,1.000000,,2013-04-14 04:10:00,
2013-04-13 21:33:00,34.0,33.0,-100.00,SE,133,1.0,3.0,96,0.01,,,0.68,1.000000,,2013-04-14 04:33:00,
2013-04-13 21:43:00,34.0,33.0,-100.00,SE,133,1.0,3.0,96,0.01,,,0.68,1.000000,,2013-04-14 04:43:00,
2013-04-13 21:52:00,34.0,33.0,-100.00,SE,133,1.0,3.0,96,0.01,,,0.68,1.000000,,2013-04-14 04:52:00,
2013-04-13 22:02:00,34.0,33.0,-100.00,SE,133,1.0,3.0,96,0.01,,,0.68,1.000000,,2013-04-14 05:02:00,
2013-04-13 22:10:00,34.0,33.0,-100.00,ENE,62,1.0,4.0,96,0.00,,,0.64,1.000000,,2013-04-14 05:10:00,
2013-04-13 22:32:00,34.0,33.0,-100.00,ENE,62,1.0,4.0,96,0.00,,,0.64,1.000000,,2013-04-14 05:32:00,
2013-04-13 22:42:00,34.0,33.0,-100.00,ENE,62,1.0,4.0,96,0.00,,,0.64,1.000000,,2013-04-14 05:42:00,
2013-04-13 22:52:00,34.0,33.0,-100.00,ENE,62,1.0,4.0,96,0.00,,,0.64,1.000000,,2013-04-14 05:52:00,
2013-04-13 23:02:00,34.0,33.0,-100.00,ENE,62,1.0,4.0,96,0.00,,,0.64,1.000000,,2013-04-14 06:02:00,
2013-04-13 23:10:00,34.0,33.0,-100.00,East,92,1.0,3.0,96,0.01,,,0.65,1.000000,,2013-04-14 06:10:00,
2013-04-13 23:32:00,34.0,33.0,-100.00,East,92,1.0,3.0,96,0.01,,,0.65,1.000000,,2013-04-14 06:32:00,
2013-04-13 23:42:00,34.0,33.0,-100.00,East,92,1.0,3.0,96,0.01,,,0.65,1.000000,,2013-04-14 06:42:00,
2013-04-13 23:52:00,34.0,33.0,-100.00,East,92,1.0,3.0,96,0.01,,,0.65,1.000000,,2013-04-14 06:52:00,